This is the latest recevied weather packets stored in our database for station/object K4DNM. If no packets are shown the sender has not sent any weather packets the latest 10 day(s).
| Time | Temp. | Humidity | Pressure | Rain* | Wind** | Luminosity | Snow |
|---|---|---|---|---|---|---|---|
| 1777920083 | 26.67° C | 34% | 1013.5 hPa | 0 mm | - | 871 W/m² | - |
| 1777919723 | 26.11° C | 37% | 1013.6 hPa | 0 mm | - | 880 W/m² | - |
| 1777919423 | 26.11° C | 35% | 1013.6 hPa | 0 mm | - | 895 W/m² | - |
| 1777919183 | 26.11° C | 33% | 1013.6 hPa | 0 mm | - | 903 W/m² | - |
| 1777918884 | 26.11° C | 37% | 1013.7 hPa | 0 mm | - | 906 W/m² | - |
| 1777918523 | 25.56° C | 36% | 1013.6 hPa | 0 mm | - | 922 W/m² | - |
| 1777918222 | 25.56° C | 37% | 1013.6 hPa | 0 mm | - | 925 W/m² | - |
| 1777917922 | 25.56° C | 37% | 1013.7 hPa | 0 mm | - | 934 W/m² | - |
| 1777917621 | 25.56° C | 38% | 1013.9 hPa | 0 mm | - | 944 W/m² | - |
| 1777917322 | 25.56° C | 38% | 1014.1 hPa | 0 mm | - | 950 W/m² | - |
| 1777917019 | 25.56° C | 36% | 1014.1 hPa | 0 mm | - | 944 W/m² | - |
| 1777916718 | 25.56° C | 38% | 1014.2 hPa | 0 mm | - | 952 W/m² | - |
| 1777916478 | 25.56° C | 39% | 1014.3 hPa | 0 mm | - | 962 W/m² | - |
| 1777916176 | 25.56° C | 38% | 1014.4 hPa | 0 mm | - | 968 W/m² | - |
| 1777915812 | 25° C | 40% | 1014.3 hPa | 0 mm | - | 966 W/m² | - |
| 1777915512 | 25° C | 40% | 1014.5 hPa | 0 mm | - | 974 W/m² | - |
| 1777915213 | 24.44° C | 40% | 1014.4 hPa | 0 mm | - | 979 W/m² | - |
| 1777914913 | 24.44° C | 40% | 1014.5 hPa | 0 mm | - | 980 W/m² | - |
| 1777914674 | 24.44° C | 42% | 1014.6 hPa | 0 mm | - | 980 W/m² | - |
| 1777914313 | 24.44° C | 40% | 1014.6 hPa | 0 mm | - | 977 W/m² | - |
| 1777914010 | 24.44° C | 44% | 1014.7 hPa | 0 mm | - | 979 W/m² | - |
| 1777913769 | 24.44° C | 42% | 1014.8 hPa | 0 mm | - | 979 W/m² | - |
| 1777913470 | 24.44° C | 41% | 1014.8 hPa | 0 mm | - | 979 W/m² | - |
| 1777913110 | 24.44° C | 43% | 1014.8 hPa | 0 mm | - | 976 W/m² | - |
| 1777912811 | 24.44° C | 43% | 1014.9 hPa | 0 mm | - | 975 W/m² | - |
* Rain latest hour (hover to see other rain measurements)
** Current wind speed in m/s (hover to see current wind gust speed)